This is the latest recevied weather packets stored in our database for station/object N8WJW. If no packets are shown the sender has not sent any weather packets the latest 10 day(s).
| Time | Temp. | Humidity | Pressure | Rain* | Wind** | Luminosity | Snow |
|---|---|---|---|---|---|---|---|
| 1777840471 | 15° C | 43% | 1013.4 hPa | 0 mm | - | 393 W/m² | - |
| 1777840168 | 15.56° C | 43% | 1013.4 hPa | 0 mm | - | 210 W/m² | - |
| 1777839866 | 15° C | 45% | 1013.4 hPa | 0 mm | - | 198 W/m² | - |
| 1777839565 | 15° C | 43% | 1013.5 hPa | 0 mm | - | 149 W/m² | - |
| 1777839261 | 15° C | 43% | 1013.5 hPa | 0 mm | - | 253 W/m² | - |
| 1777838959 | 15° C | 43% | 1013.5 hPa | 0 mm | - | 163 W/m² | - |
| 1777838654 | 15° C | 44% | 1014 hPa | 0 mm | - | 569 W/m² | - |
| 1777838352 | 14.44° C | 44% | 1014 hPa | 0 mm | - | 202 W/m² | - |
| 1777838049 | 15° C | 42% | 1013.9 hPa | 0 mm | - | 277 W/m² | - |
| 1777837745 | 15° C | 41% | 1014 hPa | 0 mm | - | 224 W/m² | - |
| 1777837442 | 14.44° C | 44% | 1014.2 hPa | 0 mm | - | 383 W/m² | - |
| 1777837138 | 14.44° C | 41% | 1014.3 hPa | 0 mm | - | 400 W/m² | - |
| 1777836833 | 14.44° C | 42% | 1014.4 hPa | 0 mm | - | 219 W/m² | - |
| 1777836529 | 14.44° C | 43% | 1014.4 hPa | 0 mm | - | 238 W/m² | - |
| 1777836225 | 14.44° C | 43% | 1014.4 hPa | 0 mm | - | 279 W/m² | - |
| 1777835922 | 14.44° C | 42% | 1014.4 hPa | 0 mm | - | 234 W/m² | - |
| 1777835619 | 14.44° C | 43% | 1014.6 hPa | 0 mm | - | 240 W/m² | - |
| 1777835315 | 15° C | 42% | 1014.7 hPa | 0 mm | - | 192 W/m² | - |
| 1777835013 | 16.11° C | 40% | 1014.8 hPa | 0 mm | - | 915 W/m² | - |
| 1777834710 | 16.11° C | 41% | 1014.6 hPa | 0 mm | - | 164 W/m² | - |
| 1777834405 | 15.56° C | 40% | 1014.7 hPa | 0 mm | - | 910 W/m² | - |
| 1777834100 | 15° C | 46% | 1014.8 hPa | 0 mm | - | 346 W/m² | - |
| 1777833796 | 14.44° C | 41% | 1014.7 hPa | 0 mm | - | 201 W/m² | - |
| 1777833492 | 15.56° C | 41% | 1014.7 hPa | 0 mm | - | 196 W/m² | - |
| 1777833190 | 15.56° C | 40% | 1014.7 hPa | 0 mm | - | 871 W/m² | - |
* Rain latest hour (hover to see other rain measurements)
** Current wind speed in m/s (hover to see current wind gust speed)